Weather Service Report


079 
ASUS44 KLZK 201105
RWRLZK

WEATHER ROUNDUP FOR ARKANSAS
NATIONAL WEATHER SERVICE LITTLE ROCK AR
600 AM CDT FRI OCT 20 2017

NOTE: "FAIR" INDICATES FEW OR NO CLOUDS BELOW 12,000 FEET WITH NO
SIGNIFICANT WEATHER AND/OR OBSTRUCTIONS TO VISIBILITY.

ARZ001-003-010-029-201200-
NORTHWEST ARKANSAS
  
CITY           SKY/WX    TMP DP  RH WIND       PRES   REMARKS
FAYETTEVILLE   FAIR      48  48 100 W3        30.17R                  
FORT SMITH     FAIR      56  54  93 NE7       30.15S                  
HARRISON       FAIR      57  50  77 SE3       30.19R                  
ROGERS         FAIR      54  50  86 SE6       30.18R                  
SILOAM SPGS    FAIR      56  51  84 SE6       30.17R                  
HIGHFILL       FAIR      52  50  93 S6        30.17R                  
SPRINGDALE     CLEAR     57  52  82 SE5       30.18                   
$$

ARZ004-005-016-201200-
NORTH CENTRAL ARKANSAS
  
CITY           SKY/WX    TMP DP  RH WIND       PRES   REMARKS
BATESVILLE     FAIR      52  49  89 SE3       30.21R                  
FLIPPIN        FAIR      48  47  96 CALM      30.19S                  
MTN HOME       FAIR      53  50  89 S3        30.18S                  
$$

ARZ040-041-201200-
WEST CENTRAL ARKANSAS
  
CITY           SKY/WX    TMP DP  RH WIND       PRES   REMARKS
MENA           FAIR      52  52 100 CALM      30.17R                  
$$

ARZ009-017-025-026-028-201200-
NORTHEAST ARKANSAS
  
CITY           SKY/WX    TMP DP  RH WIND       PRES   REMARKS
JONESBORO      FOG       46  46 100 CALM      30.22R VSB 1/2          
NEWPORT        FAIR      47  46  97 SE3       30.22R FOG              
WALNUT RIDGE   FAIR      47  45  93 CALM      30.22R FOG              
BLYTHEVILLE    FAIR      50  50 100 SE5       30.23S                  
$$

ARZ022-023-033-042-044-201200-
CENTRAL ARKANSAS
  
CITY           SKY/WX    TMP DP  RH WIND       PRES   REMARKS
LITTLE ROCK    MOCLDY    51  51 100 CALM      30.19S                  
JACKSONVILLE   FAIR      47  46  96 CALM      30.19R                  
SEARCY         FAIR      48  48 100 CALM      30.21R FOG              
HOT SPRINGS    FAIR      52  51  97 CALM      30.18R                  
RUSSELLVILLE   FAIR      48  48 100 CALM      30.17S                  
CLINTON        FAIR      45  45 100 CALM      30.21R                  
$$

ARZ036-201200-
EAST ARKANSAS
  
CITY           SKY/WX    TMP DP  RH WIND       PRES   REMARKS
WEST MEMPHIS   FAIR      53  53 100 SE3       30.21R                  
$$

ARZ050-053-066-070-073-201200-
SOUTHWEST ARKANSAS
  
CITY           SKY/WX    TMP DP  RH WIND       PRES   REMARKS
ARKADELPHIA    FAIR      47  46  97 NE3       30.18S                  
CAMDEN         CLOUDY    48  46  93 CALM      30.16F                  
TEXARKANA      FAIR      55  54  96 CALM      30.14R                  
EL DORADO      FAIR      54  54 100 CALM      30.16S                  
DE QUEEN       FAIR      55  54  96 CALM      30.13R                  
$$

ARZ056-057-069-201200-
SOUTHEAST ARKANSAS
  
CITY           SKY/WX    TMP DP  RH WIND       PRES   REMARKS
PINE BLUFF     FAIR      51  50  96 CALM      30.20R                  
STUTTGART      FAIR      55  52  89 SE5       30.20R                  
MONTICELLO     FAIR      51  48  89 CALM      30.20R                  

$$


  

Return to Home page


Western Regional Climate Center, wrcc@dri.edu